F6HBW-13 Weather Reports


time (UTC)temp
C
wind
direction
speed
KPH
gust
KPH
rain 1hr
cm
rain 24hr
cm
rain mn
cm
humidity
%
barometer
mb
20260507155734 18 61 0.0 6.4 0.00 0.00 0.00 50 1012.5
20260507154723 18 44 0.0 3.2 0.00 0.00 0.00 51 1012.6
20260507154337 18 43 0.0 3.2 0.00 0.00 0.00 52 1012.5
20260507153726 18 357 0.0 6.4 0.00 0.00 0.00 52 1012.6
20260507152735 18 80 0.0 3.2 0.00 0.00 0.00 51 1012.6
20260507151741 18 71 1.6 8.0 0.00 0.00 0.00 52 1012.6
20260507151355 19 62 0.0 8.0 0.00 0.00 0.00 50 1012.7
20260507150741 19 87 0.0 3.2 0.00 0.00 0.00 51 1012.7
20260507145730 19 65 1.6 8.0 0.00 0.00 0.00 52 1012.8
20260507144739 18 51 0.0 9.7 0.00 0.00 0.00 50 1013.0
20260507144354 19 61 1.6 9.7 0.00 0.00 0.00 51 1013.0
20260507143743 19 50 0.0 4.8 0.00 0.00 0.00 50 1013.1
20260507142732 19 63 0.0 9.7 0.00 0.00 0.00 51 1013.1
20260507141739 19 48 0.0 1.6 0.00 0.00 0.00 50 1013.2
20260507141330 19 125 0.0 0.0 0.00 0.00 0.00 51 1013.1
20260507140739 19 138 0.0 4.8 0.00 0.00 0.00 51 1013.2
20260507135728 20 12 0.0 6.4 0.00 0.00 0.00 49 1013.2
20260507134736 20 63 0.0 9.7 0.00 0.00 0.00 49 1013.4
20260507134330 20 80 0.0 9.7 0.00 0.00 0.00 51 1013.4
20260507133737 20 67 3.2 12.9 0.00 0.00 0.00 51 1013.4
20260507132720 20 151 0.0 3.2 0.00 0.00 0.00 54 1013.5
20260507131722 19 53 0.0 4.8 0.00 0.00 0.00 53 1013.5
20260507131337 18 48 0.0 4.8 0.00 0.00 0.00 56 1013.5
20260507130725 18 2 0.0 1.6 0.00 0.00 0.00 51 1013.6
20260507125719 18 61 0.0 4.8 0.00 0.00 0.00 53 1013.7
20260507124727 18 49 0.0 1.6 0.00 0.00 0.00 51 1013.7
20260507124337 18 43 0.0 1.6 0.00 0.00 0.00 53 1013.8
20260507123729 18 151 0.0 0.0 0.00 0.00 0.00 54 1013.8
20260507122736 19 61 0.0 4.8 0.00 0.00 0.00 53 1013.8
20260507121723 19 66 0.0 11.3 0.00 0.00 0.00 53 1014.0
20260507121333 18 73 3.2 11.3 0.00 0.00 0.00 58 1014.0
20260507120724 18 59 0.0 3.2 0.00 0.00 0.00 56 1014.0
20260507115733 18 67 0.0 8.0 0.00 0.00 0.00 55 1014.0
20260507114720 18 17 0.0 6.4 0.00 0.00 0.00 56 1014.2
20260507114331 18 38 0.0 6.4 0.00 0.00 0.00 56 1014.2
20260507113750 18 28 0.0 3.2 0.00 0.00 0.00 56 1014.2
20260507112717 18 30 1.6 6.4 0.00 0.00 0.00 53 1014.2
20260507111723 19 2 0.0 8.0 0.00 0.00 0.00 53 1014.5
20260507111332 19 51 0.0 8.0 0.00 0.00 0.00 53 1014.5
20260507110721 19 357 1.6 8.0 0.00 0.00 0.00 56 1014.6
20260507105723 18 38 0.0 9.7 0.00 0.00 0.00 56 1014.5
20260507104730 18 67 1.6 9.7 0.00 0.00 0.00 59 1014.6
20260507104323 18 28 0.0 4.8 0.00 0.00 0.00 56 1014.6
20260507103732 18 98 0.0 12.9 0.00 0.00 0.00 57 1014.6
20260507102735 18 67 0.0 3.2 0.00 0.00 0.00 58 1014.6
20260507101733 18 56 0.0 0.0 0.00 0.00 0.00 57 1014.7
20260507101340 17 56 0.0 0.0 0.00 0.00 0.00 58 1014.7
20260507100746 17 54 0.0 3.2 0.00 0.00 0.00 58 1014.7
20260507095726 16 121 0.0 1.6 0.00 0.10 0.00 57 1014.8
20260507094726 16 24 0.0 6.4 0.00 0.10 0.00 62 1014.8
20260507094332 16 55 1.6 6.4 0.00 0.10 0.00 63 1014.8
20260507093719 15 39 0.0 4.8 0.00 0.10 0.00 67 1014.8
20260507092718 14 2 0.0 6.4 0.00 0.10 0.00 69 1014.8
20260507091715 13 65 0.0 4.8 0.00 0.10 0.00 70 1014.8
20260507091322 13 66 0.0 4.8 0.00 0.10 0.00 72 1014.8
20260507090726 13 48 0.0 4.8 0.00 0.10 0.00 71 1014.8
20260507085749 12 66 0.0 3.2 0.00 0.10 0.00 75 1014.6
20260507084730 12 103 0.0 0.0 0.00 0.10 0.00 77 1014.6
20260507084322 12 90 0.0 4.8 0.00 0.10 0.00 79 1014.6
20260507083726 12 76 1.6 4.8 0.00 0.10 0.00 80 1014.7
20260507082733 11 66 0.0 6.4 0.00 0.10 0.00 81 1014.5
20260507081700 11 46 0.0 0.0 0.00 0.10 0.00 82 1014.6
20260507081309 11 46 0.0 0.0 0.00 0.10 0.00 82 1014.6
20260507080715 11 46 0.0 0.0 0.00 0.10 0.00 84 1014.7
20260507075701 11 68 0.0 1.6 0.00 0.10 0.00 85 1014.6
20260507074652 10 51 0.0 0.0 0.00 0.10 0.00 86 1014.6
20260507074301 10 50 0.0 0.0 0.00 0.10 0.00 86 1014.6
20260507073652 10 62 0.0 0.0 0.00 0.10 0.00 87 1014.6
20260507072659 10 56 0.0 3.2 0.00 0.10 0.00 88 1014.4
20260507071707 10 48 0.0 0.0 0.00 0.10 0.00 89 1014.5
20260507071257 9 60 0.0 0.0 0.00 0.10 0.00 89 1014.4
20260507070707 9 60 0.0 0.0 0.00 0.10 0.00 89 1014.5
20260507065653 9 60 0.0 4.8 0.00 0.10 0.00 89 1014.5
20260507064703 8 23 0.0 0.0 0.00 0.10 0.00 90 1014.4
20260507064311 8 23 0.0 0.0 0.00 0.10 0.00 90 1014.4
20260507063705 8 22 0.0 0.0 0.00 0.10 0.00 90 1014.4
20260507062654 8 46 0.0 0.0 0.00 0.10 0.00 89 1014.3
20260507061659 8 46 0.0 0.0 0.00 0.10 0.00 89 1014.3
20260507061308 8 46 0.0 0.0 0.00 0.10 0.00 89 1014.3
20260507060658 7 46 0.0 0.0 0.00 0.10 0.00 88 1014.4
20260507055707 7 46 0.0 0.0 0.00 0.10 0.00 88 1014.4
20260507054716 7 46 0.0 0.0 0.00 0.10 0.00 88 1014.3
20260507054325 7 46 0.0 0.0 0.00 0.10 0.00 88 1014.3
20260507053653 7 46 0.0 0.0 0.00 0.10 0.00 87 1014.3
20260507052656 7 46 0.0 0.0 0.00 0.10 0.00 86 1014.2
20260507051700 7 46 0.0 0.0 0.00 0.10 0.00 85 1014.1
20260507051308 7 46 0.0 0.0 0.00 0.10 0.00 85 1014.0
20260507050659 7 46 0.0 0.0 0.00 0.10 0.00 85 1014.0
20260507045729 7 46 0.0 0.0 0.00 0.10 0.00 84 1014.0
20260507044712 7 46 0.0 0.0 0.00 0.10 0.00 84 1013.8
20260507044300 7 46 0.0 0.0 0.00 0.10 0.00 84 1013.8
20260507043709 7 46 0.0 0.0 0.00 0.10 0.00 84 1013.7
20260507042716 8 46 0.0 0.0 0.00 0.10 0.00 84 1013.8
20260507041657 8 46 0.0 0.0 0.00 0.10 0.00 84 1013.7
20260507041305 8 46 0.0 0.0 0.00 0.10 0.00 84 1013.6
20260507040730 8 46 0.0 0.0 0.00 0.10 0.00 84 1013.6
20260507035655 8 46 0.0 0.0 0.00 0.10 0.00 84 1013.5
20260507034701 8 46 0.0 0.0 0.00 0.10 0.00 85 1013.5
20260507034255 8 46 0.0 0.0 0.00 0.10 0.00 85 1013.6
20260507033703 8 46 0.0 0.0 0.00 0.10 0.00 85 1013.6
20260507032730 8 46 1.6 4.8 0.00 0.10 0.00 85 1013.6
20260507031715 9 46 0.0 0.0 0.00 0.10 0.00 85 1013.6
20260507031307 9 46 0.0 0.0 0.00 0.10 0.00 85 1013.6
20260507030655 9 46 0.0 0.0 0.00 0.10 0.00 85 1013.6
20260507025702 9 46 0.0 0.0 0.00 0.20 0.00 85 1013.7
20260507024709 9 46 0.0 0.0 0.00 0.20 0.00 85 1013.5
20260507024303 9 46 0.0 0.0 0.00 0.20 0.00 85 1013.5
20260507023710 9 46 0.0 0.0 0.00 0.20 0.00 85 1013.5
20260507022700 9 46 0.0 0.0 0.00 0.20 0.00 85 1013.4
20260507021706 9 46 0.0 0.0 0.00 0.20 0.00 85 1013.3
20260507021300 9 46 0.0 0.0 0.00 0.20 0.00 85 1013.3
20260507020706 10 46 0.0 0.0 0.00 0.20 0.00 85 1013.3
20260507015657 10 46 0.0 0.0 0.00 0.51 0.00 84 1013.5
20260507014705 10 46 0.0 0.0 0.00 0.51 0.00 84 1013.2
20260507014254 10 46 0.0 0.0 0.00 0.51 0.00 84 1013.1
20260507013706 10 46 0.0 0.0 0.00 0.51 0.00 84 1013.1
20260507012654 10 46 0.0 0.0 0.00 0.51 0.00 84 1013.2
20260507011659 10 46 0.0 0.0 0.00 0.51 0.00 84 1013.1
20260507011308 10 46 0.0 0.0 0.00 0.51 0.00 84 1013.1
20260507010658 10 46 0.0 0.0 0.00 0.51 0.00 84 1013.1
20260507005707 10 46 0.0 0.0 0.00 0.51 0.00 84 1013.2
20260507004654 10 46 0.0 0.0 0.00 0.51 0.00 84 1013.2
20260507004303 10 46 0.0 0.0 0.00 0.51 0.00 84 1013.2
20260507003653 10 46 0.0 0.0 0.00 0.51 0.00 84 1013.2
20260507002659 10 46 0.0 0.0 0.00 0.51 0.00 85 1013.3
20260507001704 10 46 0.0 0.0 0.00 0.51 0.00 85 1013.3
20260507001257 11 46 0.0 0.0 0.00 0.51 0.00 85 1013.3
20260507000729 11 46 0.0 0.0 0.00 0.51 0.00 84 1013.3
20260506235654 11 46 0.0 0.0 0.00 0.61 0.00 85 1013.3
20260506234727 11 46 1.6 6.4 0.00 0.61 0.00 86 1013.1
20260506234257 11 46 1.6 6.4 0.00 0.61 0.00 86 1013.2
20260506233706 11 7 0.0 0.0 0.00 0.61 0.00 86 1013.1
20260506232715 11 7 0.0 0.0 0.00 0.61 0.00 86 1013.2
20260506231657 11 7 0.0 0.0 0.00 0.61 0.00 86 1013.1
20260506231335 11 7 0.0 0.0 0.00 0.61 0.00 85 1013.1
20260506230705 11 7 0.0 0.0 0.00 0.61 0.00 85 1013.1
20260506225727 11 7 0.0 0.0 0.00 0.61 0.00 85 1013.0
20260506224714 11 7 0.0 0.0 0.00 0.61 0.00 85 1013.1
20260506224307 11 7 0.0 0.0 0.00 0.61 0.00 85 1013.1
20260506223653 11 7 0.0 0.0 0.00 0.61 0.00 85 1013.1
20260506222702 11 7 0.0 0.0 0.00 0.61 0.00 84 1013.1
20260506221708 11 7 0.0 0.0 0.00 0.61 0.00 84 1013.0
20260506221301 11 7 0.0 0.0 0.00 0.61 0.00 84 1013.0
20260506220706 11 7 0.0 0.0 0.00 0.61 0.00 83 1013.0
20260506215658 11 7 0.0 0.0 0.00 0.61 0.13 83 1012.9
20260506214706 12 7 0.0 0.0 0.00 0.61 0.13 83 1012.7
20260506214256 12 7 0.0 0.0 0.00 0.61 0.13 83 1012.7
20260506213708 12 7 0.0 0.0 0.00 0.61 0.13 83 1012.6
20260506212655 12 7 0.0 0.0 0.00 0.61 0.13 82 1012.7
20260506211701 12 7 0.0 0.0 0.00 0.61 0.13 82 1012.7
20260506211312 12 7 0.0 0.0 0.00 0.61 0.13 82 1012.6
20260506210703 12 7 0.0 0.0 0.00 0.61 0.13 82 1012.7
20260506205711 12 7 0.0 0.0 0.00 0.61 0.13 82 1012.7
20260506204727 12 7 0.0 0.0 0.00 0.61 0.13 82 1012.6
20260506204255 12 7 0.0 0.0 0.00 0.61 0.13 82 1012.5
20260506203706 12 7 0.0 0.0 0.00 0.61 0.13 81 1012.5
20260506202710 12 7 0.0 0.0 0.00 0.61 0.13 81 1012.5
20260506201714 12 7 0.0 0.0 0.00 0.61 0.13 81 1012.4
20260506201300 12 7 0.0 0.0 0.00 0.61 0.13 80 1012.3
20260506200704 12 7 0.0 0.0 0.00 0.61 0.13 80 1012.2
20260506195711 12 7 0.0 0.0 0.00 0.61 0.13 79 1012.1
20260506194655 13 15 0.0 0.0 0.00 0.61 0.13 78 1012.0
20260506194300 13 15 0.0 0.0 0.00 0.61 0.13 77 1012.0
20260506193729 13 15 0.0 0.0 0.00 0.61 0.13 77 1011.9
20260506192707 13 15 0.0 0.0 0.00 0.61 0.13 76 1011.8
20260506191708 13 15 0.0 0.0 0.00 0.61 0.13 76 1011.6
20260506191315 13 15 0.0 0.0 0.00 0.61 0.13 75 1011.6
20260506190718 13 13 0.0 0.0 0.00 0.61 0.13 75 1011.5
20260506185704 13 14 0.0 0.0 0.00 0.61 0.13 74 1011.4
20260506184654 13 14 0.0 4.8 0.00 0.61 0.13 73 1011.3
20260506184303 13 14 0.0 3.2 0.00 0.61 0.13 73 1011.4
20260506183708 13 17 0.0 4.8 0.00 0.61 0.13 72 1011.4
20260506182701 13 17 0.0 6.4 0.00 0.61 0.13 72 1011.3
20260506181705 14 347 0.0 6.4 0.00 0.61 0.13 72 1011.2
20260506181314 14 346 0.0 6.4 0.00 0.61 0.13 71 1011.2
20260506180723 14 2 0.0 6.4 0.00 0.61 0.13 70 1011.2
20260506175731 14 14 0.0 3.2 0.00 0.61 0.13 69 1011.0
20260506174656 14 7 1.6 8.0 0.00 0.61 0.13 68 1010.9
20260506174311 15 31 0.0 4.8 0.00 0.61 0.13 68 1011.0
20260506173657 15 38 1.6 6.4 0.00 0.61 0.13 68 1010.9
20260506172705 15 52 0.0 4.8 0.00 0.61 0.13 68 1010.9
20260506171655 15 56 1.6 8.0 0.00 0.61 0.13 68 1010.9
20260506171304 15 48 3.2 8.0 0.00 0.61 0.13 67 1010.9
20260506170657 15 63 0.0 6.4 0.00 0.61 0.13 66 1010.9
20260506165704 15 33 0.0 4.8 0.00 0.61 0.13 66 1010.8
20260506164728 15 29 0.0 3.2 0.00 0.61 0.13 65 1010.8
20260506164302 15 15 0.0 4.8 0.00 0.61 0.13 65 1010.7
20260506163654 15 47 0.0 12.9 0.00 0.61 0.13 65 1010.7
20260506162719 15 69 0.0 3.2 0.00 0.61 0.13 64 1010.7
20260506161705 15 65 0.0 4.8 0.00 0.61 0.13 66 1010.7
20260506161318 15 84 0.0 4.8 0.00 0.61 0.13 66 1010.7
20260506160704 15 65 0.0 6.4 0.00 0.61 0.13 64 1010.8